EW1556 Weather Reports


Display with metric or nautical units.
time (UTC)temp
F
wind
direction
speed
MPH
gust
MPH
rain 1hr
in
rain 24hr
in
rain mn
in
humidity
%
barometer
mb
20260906110054 51 250 2.0 4.0 0.00 0.20 0.20 88 1014.7
20260906104553 52 243 2.0 5.0 0.00 0.20 0.20 89 1014.9
20260906103054 52 264 2.0 4.0 0.00 0.20 0.20 89 1014.8
20260906101551 51 259 2.0 5.0 0.01 0.20 0.20 89 1014.9
20260906100049 51 287 4.0 8.0 0.05 0.20 0.20 89 1014.9
20260906094549 51 287 4.0 7.0 0.07 0.20 0.20 90 1015.0
20260906093051 51 271 3.0 9.0 0.09 0.20 0.20 89 1015.2
20260906091547 51 292 9.0 12.0 0.09 0.19 0.19 89 1015.1
20260906090044 51 280 6.0 10.0 0.06 0.15 0.15 88 1015.6
20260906084543 51 281 9.0 16.0 0.07 0.13 0.13 87 1015.3
20260906083047 51 281 9.0 14.0 0.10 0.11 0.11 87 1015.6
20260906081541 52 271 6.0 12.0 0.10 0.10 0.10 85 1016.0
20260906080033 53 288 6.0 9.0 0.09 0.09 0.09 86 1015.8
20260906074534 54 275 4.0 9.0 0.06 0.06 0.06 85 1016.0
20260906073026 55 210 3.0 7.0 0.01 0.01 0.01 83 1016.0
20260906071523 55 251 4.0 7.0 0.00 0.00 0.00 80 1015.6
20260906070019 56 293 4.0 7.0 0.00 0.00 0.00 77 1015.4
20260906064518 56 285 3.0 5.0 0.00 0.00 0.00 76 1015.3
20260906063020 56 291 2.0 4.0 0.00 0.00 0.00 74 1015.3
20260906061518 57 290 1.0 2.0 0.00 0.00 0.00 69 1015.3
20260906060016 59 315 2.0 4.0 0.00 0.00 0.00 62 1015.2
20260906054516 59 4 0.0 2.0 0.00 0.00 0.00 61 1015.4
20260906053018 59 14 0.0 4.0 0.00 0.00 0.00 61 1015.4
20260906051515 59 8 3.0 6.0 0.00 0.00 0.00 60 1015.3
20260906050043 59 8 2.0 5.0 0.00 0.00 0.00 60 1015.5
20260906044515 59 343 2.0 5.0 0.00 0.00 0.00 60 1015.5
20260906043114 58 359 1.0 2.0 0.00 0.00 0.00 62 1015.6
20260906041516 58 12 2.0 4.0 0.00 0.00 0.00 61 1015.5
20260906040012 59 2 2.0 5.0 0.00 0.00 0.00 58 1015.4
20260906034514 59 6 2.0 4.0 0.00 0.00 0.00 57 1015.3
20260906033014 60 4 3.0 7.0 0.00 0.00 0.00 57 1015.1
20260906031514 60 2 4.0 6.0 0.00 0.00 0.00 55 1014.9
20260906030010 61 27 4.0 7.0 0.00 0.00 0.00 54 1014.9
20260906024510 62 22 5.0 11.0 0.00 0.00 0.00 53 1014.8
20260906023009 63 31 6.0 9.0 0.00 0.00 0.00 52 1014.8
20260906021509 63 4 5.0 10.0 0.00 0.00 0.00 52 1014.7
20260906020009 64 15 6.0 14.0 0.00 0.00 0.00 51 1014.6
20260906014510 65 52 10.0 17.0 0.00 0.00 0.00 49 1014.4
20260906013010 68 35 13.0 23.0 0.00 0.00 0.00 44 1014.4
20260906011607 0 33 2.0 0.0 0.00 0.00 0.00 35 1014.2
20260905221541 68 329 2.0 5.0 0.00 0.00 0.00 37 1015.0
20260905220041 69 246 4.0 8.0 0.00 0.00 0.00 37 1015.0
20260905214538 69 114 0.0 8.0 0.00 0.00 0.00 38 1015.0
20260905213033 67 82 2.0 10.0 0.00 0.00 0.00 40 1015.2
20260905211533 67 111 3.0 8.0 0.00 0.00 0.00 41 1015.3
20260905210041 65 44 3.0 8.0 0.00 0.00 0.00 44 1015.7
20260905204531 66 72 4.0 7.0 0.00 0.00 0.00 43 1015.6
20260905203029 66 215 3.0 5.0 0.00 0.00 0.00 43 1015.8
20260905201535 64 92 3.0 9.0 0.00 0.00 0.00 47 1015.8
20260905200038 63 51 6.0 9.0 0.00 0.00 0.00 53 1015.9
20260905194525 64 86 4.0 7.0 0.00 0.00 0.00 52 1016.0
20260905193028 65 76 7.0 10.0 0.00 0.00 0.00 51 1016.1
20260905191521 64 332 1.0 7.0 0.00 0.00 0.00 52 1016.2
20260905190018 63 72 4.0 9.0 0.00 0.00 0.00 55 1016.3
20260905184521 62 124 3.0 5.0 0.00 0.00 0.00 57 1016.4
20260905183021 61 67 3.0 6.0 0.00 0.00 0.00 60 1016.6
20260905181514 60 356 2.0 5.0 0.00 0.00 0.00 62 1016.8
20260905180008 59 174 2.0 5.0 0.00 0.00 0.00 67 1017.0
20260905174516 58 31 2.0 6.0 0.00 0.00 0.00 70 1017.1
20260905173005 57 113 2.0 8.0 0.00 0.00 0.00 68 1017.0
20260905171506 57 88 0.0 5.0 0.00 0.00 0.00 66 1017.2
20260905170002 57 219 0.0 11.0 0.00 0.00 0.00 66 1017.1
20260905164558 56 146 0.0 4.0 0.00 0.00 0.00 71 1017.2
20260905163103 55 139 0.0 6.0 0.00 0.00 0.00 70 1017.3
20260905161551 54 241 0.0 2.0 0.00 0.00 0.00 74 1017.1
20260905160055 54 269 1.0 2.0 0.00 0.00 0.00 75 1017.1
20260905154549 53 89 0.0 0.0 0.00 0.00 0.00 77 1017.1
20260905153043 51 207 0.0 1.0 0.00 0.00 0.00 80 1017.1
20260905151543 50 107 0.0 0.0 0.00 0.00 0.00 83 1017.1
20260905150042 49 279 0.0 0.0 0.00 0.00 0.00 85 1017.1
20260905144549 48 278 0.0 0.0 0.00 0.00 0.00 87 1017.0
20260905143040 46 279 0.0 0.0 0.00 0.00 0.00 89 1016.9
20260905141601 0 0.0 0.0 0.00 0.00 0.00 1016.9
20260905140032 0 0.0 0.0 0.00 0.00 0.00 1016.9
20260905134527 0 0.0 0.0 0.00 0.00 0.00 1016.7
20260905133034 44 273 1.0 3.0 0.00 0.00 0.00 85 1016.5
20260905131537 45 280 2.0 3.0 0.00 0.00 0.00 86 1016.4
20260905130023 46 290 1.0 3.0 0.00 0.00 0.00 88 1016.3
20260905124520 44 299 1.0 2.0 0.00 0.00 0.00 90 1016.2
20260905123017 42 283 0.0 0.0 0.00 0.00 0.00 88 1016.2
20260905121515 43 283 1.0 3.0 0.00 0.00 0.00 85 1016.1
20260905120011 45 287 0.0 0.0 0.00 0.00 0.00 87 1016.1
20260905114511 46 287 0.0 2.0 0.00 0.00 0.00 84 1016.2
20260905113008 46 122 0.0 0.0 0.00 0.00 0.00 84 1016.2
20260905111504 48 287 0.0 0.0 0.00 0.00 0.00 84 1016.1